Regional Weather Roundup
Issued by NWS

Home | Current Version | Previous Version | Graphics & Text | Print | Product List | Glossary On
Versions: 1 2 3 4 5 6 7 8 9 10 11 12 13 14 15 16 17 18 19 20 21 22 23 24 25 26 27 28 29 30 31 32 33 34 35 36 37 38 39 40 41 42 43 44 45 46 47 48 49
000
ASUS45 KCYS 191410
RWRWY

WYOMING REGIONAL WEATHER ROUNDUP
NATIONAL WEATHER SERVICE CHEYENNE WY
700 AM MST FRI DEC 19 2014

NOTE:  "FAIR" INDICATES FEW OR NO CLOUDS BELOW 12,000 FEET
WITH NO SIGNIFICANT WEATHER AND/OR OBSTRUCTIONS TO VISIBILITY.

WYZ001-191500-
YELLOWSTONE NATIONAL PARK

CITY           SKY/WX    TMP DP  RH WIND       PRES   REMARKS
LK YELLOWSTONE   N/A     23  21  92 CALM      30.06F
W YELLOWSTONE  NOT AVBL

$$
WYZ002>013-054>058-071-098>099-191500-
NORTHERN WYOMING

CITY           SKY/WX    TMP DP  RH WIND       PRES   REMARKS
JACKSON        MOCLDY    28  27  93 S6        30.09S WCI  22
CODY           FAIR      32  18  55 N5        29.96S WCI  27
GREYBULL       FAIR       5   2  87 W5        30.06R WCI  -4
WORLAND        FAIR       2  -2  83 S5        30.04S WCI  -8
SHERIDAN       FAIR      26  13  57 CALM      29.95S
BUFFALO        FAIR      26  12  55 CALM      29.97S
GILLETTE       FAIR      27  14  58 S7        29.96F WCI  19
HULETT           N/A    N/A N/A N/A MISG        N/A
NEWCASTLE      FAIR      18  14  86 CALM      30.02S

$$
WYZ014>020-022>026-101>103-191500-
CENTRAL WYOMING

CITY           SKY/WX    TMP DP  RH WIND       PRES   REMARKS
BIG PINEY      FAIR      12   9  87 CALM      30.12F
PINEDALE       CLOUDY    19  19 100 CALM      30.13S
DUBOIS         CLOUDY    28  16  59 W18G25    30.01R WCI  16
LANDER         FOG       -3  -7  82 E3        30.05R VSB 3/4
RIVERTON       FOG        4   1  88 CALM      30.06S VSB 1/4
CASPER         FAIR      23  15  71 SW18      30.04R WCI   9
DOUGLAS        FAIR      20  14  77 NW9       30.03S WCI   9

$$
WYZ021-027>030-104>119-191500-
SOUTHERN WYOMING

CITY           SKY/WX    TMP DP  RH WIND       PRES   REMARKS
EVANSTON       CLOUDY    21  19  92 SW13      30.15S WCI   9
KEMMERER       CLOUDY    23  21  93 SW6       30.13S WCI  16
FORT BRIDGER   CLOUDY    29  20  69 SW12      30.17S WCI  20
ROCK SPRINGS   CLOUDY    21  16  81 SW15      30.14S WCI   8
DIXON          CLOUDY   N/A N/A N/A SE3       30.23R
RAWLINS        FAIR      20  16  84 W16       30.10S WCI   6
SARATOGA       FAIR      25  18  74 SW3       30.12S
LARAMIE        FAIR      18  11  74 SW10      30.06R WCI   6
CHEYENNE       FAIR      22  12  65 SW12      30.04S WCI  10
TORRINGTON     FAIR     N/A N/A N/A E3        30.04S
PINE BLUFFS    FAIR      18  12  79 W6        30.07S WCI   9

$$



USA.gov is the U.S. government's official web portal to all federal, state and local government web resources and services.